User: anonymous   Login
Location: M.A.R.S.Observatory
(35.4031°N, 81.5481°W)
Time: 11:19:42
(UTC-04:00)
Language:

SL-8 R/B - Orbit

View from above orbital plane
View from above orbital plane
View from above satellite
View from above satellite

Ground track
Ground track

The orbit data is extracted from the following two-line orbital elements,

1 33066U 08031G   16176.98365579 -.00000068  00000-0  21444-4 0  9997
2 33066  48.4447 341.0886 0007409  45.3351  99.1175 14.69442143430223
Epoch (UTC): 24 June 2016 23:36:27
Eccentricity: 0.0007409
inclination: 48.4447°
perigee height: 657 km
apogee height: 668 km
right ascension of ascending node: 341.0886°
argument of perigee: 45.3351°
revolutions per day: 14.69442143
mean anomaly at epoch: 99.1175°
orbit number at epoch: 43022

The dashed part of the orbit path shows where the satellite is in the earth's shadow,  

DLR